Flag for USA

Past Weather in Kapolei, Hawaii, USA — Yesterday and Last 2 Weeks

Now
78 °F

Clear.


Feels Like: 80 °F
Forecast: 85 / 72 °F
Wind: 6 mph from Northeast

Location: Kalaeloa Airport
Current Time: Sep 25, 2020 at 11:52:34 pm
Latest Report: Sep 25, 2020 at 10:53 pm
Visibility: 10 mi
Pressure30.08 "Hg
Humidity: 69%
Dew Point: 67 °F
Location of KapoleiLocation

Past Weather in Kapolei — Graph

°F

Kapolei Temperature Yesterday

Maximum temperature yesterday: 91 °F (at 12:53 pm)
Minimum temperature yesterday: 77 °F (at 12:53 am)
Average temperature yesterday: 82 °F

High & Low Weather Summary for the Past Weeks

 TemperatureHumidityPressure
High92 °F (Sep 18, 12:53 pm)94% (Sep 21, 4:53 am)30.14 "Hg (Sep 21, 4:53 am)
Low69 °F (Sep 14, 5:53 am)41% (Sep 18, 12:53 pm)29.95 "Hg (Sep 12, 4:53 pm)
Average80 °F64%30.05 "Hg
* Reported Sep 10 9:53 pm — Sep 25 9:53 pm, Kapolei. Weather by CustomWeather, © 2020

Note: Actual official high and low records may vary slightly from our data, if they occured in-between our weather recording intervals... More about our weather records

Kapolei Weather History for the Previous 24 Hours

Scroll right to see more
 ConditionsComfort  
Time TempWeatherWind HumidityBarometerVisibility
9:53 pm
Fri, Sep 25
78 °FClear.5 mph66%30.09 "Hg10 mi
8:53 pm78 °FClear.3 mph69%30.09 "Hg10 mi
7:53 pm79 °FClear.5 mph65%30.06 "Hg10 mi
6:53 pm80 °FClear.5 mph62%30.05 "Hg10 mi
6:24 pm81 °FPassing clouds.5 mph58%30.03 "Hg10 mi
5:53 pm83 °FSunny.9 mph55%30.03 "Hg10 mi
4:53 pm86 °FSunny.7 mph48%30.02 "Hg10 mi
3:53 pm87 °FSunny.12 mph45%30.01 "Hg10 mi
2:53 pm90 °FPassing clouds.9 mph42%30.01 "Hg10 mi
1:53 pm89 °FPassing clouds.9 mph43%30.03 "Hg10 mi
12:53 pm89 °FScattered clouds.8 mph42%30.05 "Hg10 mi
11:53 am90 °FPassing clouds.9 mph42%30.07 "Hg10 mi
10:53 am86 °FPartly sunny.9 mph49%30.09 "Hg10 mi
9:53 am86 °FScattered clouds.9 mph51%30.09 "Hg10 mi
8:53 am84 °FSunny.6 mph57%30.09 "Hg10 mi
7:53 am79 °FSunny.5 mph67%30.08 "Hg10 mi
6:53 am73 °FSunny.3 mph81%30.06 "Hg10 mi
5:53 am72 °FClear.3 mph84%30.04 "Hg10 mi
4:53 am73 °FClear.3 mph84%30.03 "Hg10 mi
3:53 am74 °FPassing clouds.No wind82%30.04 "Hg10 mi
2:53 am78 °FPassing clouds.5 mph69%30.04 "Hg10 mi
1:53 am77 °FClear.5 mph71%30.05 "Hg10 mi
12:53 am79 °FMostly cloudy.7 mph67%30.07 "Hg10 mi
11:53 pm
Thu, Sep 24
78 °FPassing clouds.7 mph69%30.08 "Hg10 mi
Weather by CustomWeather, © 2020

See weather overview